Weather past 2 weeks in Bantam, Cocos Islands

Now
81 °F

Passing clouds.


Feels Like: 87 °F
Forecast: 80 / 87 °F
Wind: 3 mph from North

Location: Cocos Island Airport

Current Time: Mar 30, 2015 at 6:45:36 AM

Latest Report: Mar 30, 2015 at 5:30 AM


Visibility: N/A

Pressure: 29.77 "Hg

Humidity: 89%

Dew point: 77 °F

Location of BantamLocation

Historic Weather in Bantam — Graph

°F

Bantam temperature yesterday

Maximum temperature yesterday: 88 °F (at 2:30 PM)
Minimum temperature yesterday: 77 °F (at 6:00 PM)
Average temperature yesterday: 82 °F

Past Weeks' High & Low Weather Summary

 TemperatureHumidityPressure
High88 °F (Mar 16, 11:00 AM)100% (Mar 15, 6:00 AM)29.95 "Hg (Mar 15, 6:00 AM)
Low77 °F (Mar 15, 6:00 AM)66% (Mar 16, 12:30 PM)29.77 "Hg (Mar 17, 3:00 PM)
Average83 °F81%29.86 "Hg
* Reported Mar 15 5:30 AM — Mar 30 5:30 AM, Bantam, Weather by CustomWeather, © 2015

Note: Actual official high and low records may vary slightly from our data, if they occured in-between our weather recording intervals... More about our weather records

Advertising

Bantam weather history for previous 24 hours

 ConditionsComfort  
Time TempWeatherWind HumidityBarometerVisibility
5:30 AM
Mon, Mar 30
81 °FPassing clouds.3 mph89%29.77 "HgN/A
5:00 AM81 °FPassing clouds.7 mph84%29.77 "HgN/A
4:30 AM81 °FClear.7 mph84%29.77 "HgN/A
3:32 AM79 °FPassing clouds.5 mph94%29.77 "HgN/A
3:00 AM79 °FClear.5 mph89%29.77 "HgN/A
2:30 AM81 °FClear.7 mph84%29.80 "HgN/A
1:30 AM79 °FPassing clouds.6 mph89%29.80 "HgN/A
1:00 AM79 °FPassing clouds.7 mph89%29.83 "HgN/A
12:30 AM79 °FClear.8 mph89%29.83 "HgN/A
11:30 PM
Sun, Mar 29
79 °FClear.8 mph89%29.86 "HgN/A
11:00 PM79 °FSprinkles. Partly cloudy.7 mph89%29.86 "HgN/A
10:30 PM79 °FDrizzle. Mostly cloudy.5 mph89%29.86 "HgN/A
10:00 PM79 °FLight rain. Overcast.5 mph89%29.86 "HgN/A
9:30 PM79 °FSprinkles. Mostly cloudy.7 mph89%29.86 "HgN/A
8:30 PM79 °FSprinkles. Passing clouds.9 mph89%29.86 "HgN/A
8:00 PM79 °FSprinkles. Mostly cloudy.10 mph89%29.86 "HgN/A
7:30 PM79 °FLight rain. Overcast.8 mph89%29.83 "HgN/A
7:00 PM79 °FSprinkles. Mostly cloudy.8 mph89%29.83 "HgN/A
6:30 PM79 °FSprinkles. More clouds than sun.6 mph94%29.83 "HgN/A
6:00 PM77 °FRain. Cloudy.7 mph94%29.80 "Hg4 mi
5:30 PM79 °FDrizzle. Cloudy.21 mph89%29.80 "Hg3 mi
4:30 PM84 °FScattered showers. Scattered clouds.9 mph79%29.77 "HgN/A
4:00 PM86 °FScattered showers. Scattered clouds.10 mph75%29.77 "HgN/A
3:30 PM88 °FScattered showers. Passing clouds.10 mph70%29.77 "HgN/A
3:00 PM86 °FPassing clouds.8 mph75%29.77 "HgN/A
2:30 PM88 °FPassing clouds.8 mph75%29.77 "HgN/A
2:00 PM86 °FPassing clouds.10 mph75%29.77 "HgN/A
1:30 PM86 °FScattered clouds.12 mph79%29.77 "HgN/A
12:30 PM86 °FScattered clouds.13 mph79%29.80 "HgN/A
12:00 PM86 °FScattered clouds.12 mph75%29.83 "HgN/A
11:30 AM86 °FScattered clouds.9 mph79%29.83 "HgN/A
11:00 AM86 °FSunny.10 mph79%29.83 "HgN/A
10:30 AM86 °FScattered clouds.12 mph75%29.86 "HgN/A
10:00 AM86 °FScattered clouds.9 mph75%29.86 "HgN/A
9:30 AM84 °FScattered clouds.10 mph79%29.86 "HgN/A
9:00 AM84 °FPartly sunny.10 mph74%29.86 "HgN/A
8:30 AM84 °FScattered clouds.10 mph79%29.86 "HgN/A
7:30 AM82 °FRain showers. Scattered clouds.7 mph84%29.83 "HgN/A
7:00 AM82 °FPassing clouds.6 mph79%29.83 "HgN/A
6:30 AM81 °FPassing clouds.8 mph89%29.83 "HgN/A
6:00 AM81 °FScattered showers. Passing clouds.6 mph89%29.80 "HgN/A
Weather by CustomWeather, © 2015

See weather overviewHow to use our weather pages